| time (UTC) | temp F | wind direction | speed knots | gust knots | rain 1hr in | rain 24hr in | rain mn in | humidity % | barometer mb |
| 20260507103239 | 42 | 247 | 0.0 | 1.7 | 0.00 | 0.00 | 0.00 | 55 | 1016.4 |
| 20260507101340 | 42 | 157 | 0.0 | 0.0 | 0.00 | 0.00 | 0.00 | 56 | 1016.7 |
| 20260507100342 | 42 | 157 | 0.0 | 0.0 | 0.00 | 0.00 | 0.00 | 55 | 1016.9 |
| 20260507095341 | 42 | 157 | 0.0 | 0.0 | 0.00 | 0.00 | 0.00 | 55 | 1016.9 |
| 20260507093443 | 42 | 247 | 0.0 | 0.9 | 0.00 | 0.00 | 0.00 | 55 | 1017.1 |
| 20260507092442 | 42 | 135 | 0.0 | 0.0 | 0.00 | 0.00 | 0.00 | 55 | 1017.4 |
| 20260507091442 | 42 | 225 | 0.0 | 0.9 | 0.00 | 0.00 | 0.00 | 56 | 1017.3 |
| 20260507090440 | 41 | 157 | 1.7 | 2.6 | 0.00 | 0.00 | 0.00 | 57 | 1017.4 |
| 20260507085440 | 41 | 157 | 0.0 | 0.0 | 0.00 | 0.00 | 0.00 | 58 | 1017.5 |
| 20260507084441 | 42 | 157 | 0.0 | 0.0 | 0.00 | 0.00 | 0.00 | 57 | 1017.8 |
| 20260507083441 | 43 | 157 | 0.0 | 0.0 | 0.00 | 0.00 | 0.00 | 56 | 1018.0 |
| 20260507082440 | 42 | 157 | 0.0 | 0.9 | 0.00 | 0.00 | 0.00 | 56 | 1018.3 |
| 20260507081540 | 42 | 157 | 0.0 | 0.0 | 0.00 | 0.00 | 0.00 | 57 | 1018.4 |
| 20260507080541 | 42 | 157 | 0.0 | 0.0 | 0.00 | 0.00 | 0.00 | 58 | 1018.5 |
| 20260507075640 | 42 | 157 | 0.0 | 0.0 | 0.00 | 0.00 | 0.00 | 59 | 1018.7 |
| 20260507074643 | 43 | 157 | 0.0 | 0.0 | 0.00 | 0.00 | 0.00 | 58 | 1018.8 |
| 20260507072741 | 43 | 157 | 0.0 | 0.0 | 0.00 | 0.00 | 0.00 | 58 | 1018.8 |
| 20260507071742 | 42 | 157 | 0.0 | 0.9 | 0.00 | 0.00 | 0.00 | 58 | 1018.9 |
| 20260507064740 | 43 | 157 | 0.0 | 0.0 | 0.00 | 0.00 | 0.00 | 56 | 1019.3 |
| 20260507063742 | 43 | 157 | 0.0 | 0.0 | 0.00 | 0.00 | 0.00 | 56 | 1019.4 |
| 20260507063642 | 43 | 157 | 0.0 | 0.0 | 0.00 | 0.00 | 0.00 | 56 | 1019.4 |
| 20260507062641 | 44 | 157 | 0.0 | 0.0 | 0.00 | 0.00 | 0.00 | 54 | 1019.5 |
| 20260507060741 | 43 | 292 | 0.0 | 0.0 | 0.00 | 0.00 | 0.00 | 53 | 1019.6 |
| 20260507055741 | 43 | 292 | 0.0 | 0.0 | 0.00 | 0.00 | 0.00 | 54 | 1019.7 |
| 20260507054741 | 43 | 292 | 0.0 | 0.0 | 0.00 | 0.00 | 0.00 | 54 | 1019.6 |
| 20260507053839 | 42 | 292 | 0.0 | 0.0 | 0.00 | 0.00 | 0.00 | 56 | 1019.6 |
| 20260507052842 | 42 | 292 | 0.0 | 0.0 | 0.00 | 0.00 | 0.00 | 57 | 1019.5 |
| 20260507051841 | 42 | 292 | 0.0 | 0.0 | 0.00 | 0.00 | 0.00 | 58 | 1019.5 |
| 20260507045919 | 42 | 292 | 0.0 | 0.0 | 0.00 | 0.00 | 0.00 | 57 | 1019.5 |
| 20260507045017 | 42 | 292 | 0.0 | 0.0 | 0.00 | 0.00 | 0.00 | 55 | 1019.7 |
| 20260507043118 | 43 | 292 | 0.0 | 0.0 | 0.00 | 0.00 | 0.00 | 54 | 1019.8 |
| 20260507042117 | 44 | 292 | 0.0 | 0.0 | 0.00 | 0.00 | 0.00 | 53 | 1020.0 |
| 20260507041119 | 43 | 292 | 0.0 | 0.0 | 0.00 | 0.00 | 0.00 | 54 | 1020.0 |
| 20260507040119 | 43 | 292 | 0.0 | 0.0 | 0.00 | 0.00 | 0.00 | 53 | 1020.1 |
| 20260507035218 | 44 | 292 | 0.0 | 0.0 | 0.00 | 0.00 | 0.00 | 52 | 1020.1 |
| 20260507034220 | 43 | 292 | 0.0 | 0.0 | 0.00 | 0.00 | 0.00 | 52 | 1020.1 |
| 20260507033219 | 43 | 292 | 0.0 | 0.0 | 0.00 | 0.00 | 0.00 | 52 | 1020.3 |
| 20260507031319 | 44 | 292 | 0.0 | 0.0 | 0.00 | 0.00 | 0.00 | 50 | 1020.4 |
| 20260507031219 | 44 | 292 | 0.0 | 0.0 | 0.00 | 0.00 | 0.00 | 50 | 1020.4 |
| 20260507025320 | 44 | 292 | 0.0 | 0.0 | 0.00 | 0.00 | 0.00 | 49 | 1020.5 |
| 20260507024319 | 44 | 292 | 0.0 | 0.0 | 0.00 | 0.00 | 0.00 | 47 | 1020.5 |
| 20260507024221 | 44 | 292 | 0.0 | 0.0 | 0.00 | 0.00 | 0.00 | 47 | 1020.6 |
| 20260507023219 | 45 | 292 | 0.0 | 0.0 | 0.00 | 0.00 | 0.00 | 45 | 1020.5 |
| 20260507023119 | 45 | 292 | 0.0 | 0.0 | 0.00 | 0.00 | 0.00 | 45 | 1020.4 |
| 20260507023019 | 45 | 292 | 0.0 | 0.0 | 0.00 | 0.00 | 0.00 | 45 | 1020.4 |
| 20260507022019 | 46 | 292 | 0.0 | 0.0 | 0.00 | 0.00 | 0.00 | 44 | 1020.4 |
| 20260507021118 | 46 | 292 | 0.0 | 0.0 | 0.00 | 0.00 | 0.00 | 43 | 1020.5 |
| 20260507020118 | 47 | 292 | 0.0 | 0.0 | 0.00 | 0.00 | 0.00 | 42 | 1020.3 |
| 20260507015120 | 47 | 292 | 0.0 | 0.0 | 0.00 | 0.00 | 0.00 | 41 | 1020.4 |
| 20260507014119 | 48 | 292 | 0.0 | 0.0 | 0.00 | 0.00 | 0.00 | 39 | 1020.4 |
| 20260507013118 | 49 | 292 | 0.0 | 0.0 | 0.00 | 0.00 | 0.00 | 37 | 1020.4 |
| 20260507012118 | 50 | 292 | 0.0 | 0.0 | 0.00 | 0.00 | 0.00 | 36 | 1020.4 |
| 20260507011118 | 51 | 292 | 0.0 | 0.0 | 0.00 | 0.00 | 0.00 | 35 | 1020.5 |
| 20260507010118 | 52 | 262 | 0.9 | 1.7 | 0.00 | 0.00 | 0.00 | 34 | 1020.3 |
| 20260507004119 | 53 | 312 | 2.6 | 4.3 | 0.00 | 0.00 | 0.00 | 32 | 1020.5 |
| 20260507002119 | 53 | 251 | 0.0 | 1.7 | 0.00 | 0.00 | 0.00 | 33 | 1020.5 |
| 20260507001119 | 53 | 294 | 0.9 | 2.6 | 0.00 | 0.00 | 0.00 | 32 | 1020.6 |
| 20260506235217 | 54 | 304 | 0.9 | 4.3 | 0.00 | 0.00 | 0.00 | 32 | 1020.6 |
| 20260506235118 | 54 | 277 | 0.9 | 2.6 | 0.00 | 0.00 | 0.00 | 32 | 1020.6 |
| 20260506232118 | 54 | 288 | 2.6 | 5.2 | 0.00 | 0.00 | 0.00 | 31 | 1020.8 |
| 20260506231118 | 54 | 279 | 3.5 | 8.7 | 0.00 | 0.00 | 0.00 | 31 | 1020.9 |
| 20260506230118 | 54 | 297 | 3.5 | 7.0 | 0.00 | 0.00 | 0.00 | 31 | 1021.0 |
| 20260506225119 | 54 | 254 | 2.6 | 6.1 | 0.00 | 0.00 | 0.00 | 32 | 1021.0 |
| 20260506223120 | 53 | 242 | 0.9 | 1.7 | 0.00 | 0.00 | 0.00 | 32 | 1021.2 |
| 20260506222120 | 53 | 288 | 0.9 | 2.6 | 0.00 | 0.00 | 0.00 | 32 | 1021.2 |
| 20260506221217 | 54 | 281 | 6.1 | 12.2 | 0.00 | 0.00 | 0.00 | 31 | 1021.3 |
| 20260506220220 | 54 | 278 | 1.7 | 3.5 | 0.00 | 0.00 | 0.00 | 31 | 1021.4 |
| 20260506215318 | 54 | 258 | 2.6 | 5.2 | 0.00 | 0.00 | 0.00 | 32 | 1021.3 |
| 20260506214418 | 54 | 282 | 2.6 | 5.2 | 0.00 | 0.00 | 0.00 | 31 | 1021.4 |
| 20260506213418 | 54 | 298 | 1.7 | 5.2 | 0.00 | 0.00 | 0.00 | 31 | 1021.3 |
| 20260506212419 | 54 | 254 | 3.5 | 5.2 | 0.00 | 0.00 | 0.00 | 30 | 1021.4 |
| 20260506211517 | 53 | 295 | 2.6 | 7.8 | 0.00 | 0.00 | 0.00 | 31 | 1021.4 |
| 20260506210519 | 55 | 259 | 1.7 | 4.3 | 0.00 | 0.00 | 0.00 | 31 | 1021.5 |
| 20260506205518 | 54 | 304 | 2.6 | 5.2 | 0.00 | 0.00 | 0.00 | 30 | 1021.8 |
| 20260506203619 | 54 | 284 | 2.6 | 5.2 | 0.00 | 0.00 | 0.00 | 31 | 1022.0 |
| 20260506202618 | 53 | 323 | 1.7 | 4.3 | 0.00 | 0.00 | 0.00 | 31 | 1022.1 |
| 20260506201618 | 53 | 299 | 2.6 | 4.3 | 0.00 | 0.00 | 0.00 | 31 | 1022.2 |
| 20260506200620 | 53 | 299 | 4.3 | 6.1 | 0.00 | 0.00 | 0.00 | 32 | 1022.4 |
| 20260506195618 | 54 | 276 | 2.6 | 5.2 | 0.00 | 0.00 | 0.00 | 32 | 1022.4 |
| 20260506194618 | 53 | 297 | 2.6 | 6.1 | 0.00 | 0.00 | 0.00 | 33 | 1022.5 |
| 20260506193717 | 52 | 287 | 1.7 | 5.2 | 0.00 | 0.00 | 0.00 | 32 | 1022.5 |
| 20260506192719 | 52 | 277 | 1.7 | 6.1 | 0.00 | 0.00 | 0.00 | 32 | 1022.7 |
| 20260506191718 | 53 | 294 | 3.5 | 7.8 | 0.00 | 0.00 | 0.00 | 32 | 1022.5 |
| 20260506185720 | 51 | 321 | 3.5 | 8.7 | 0.00 | 0.00 | 0.00 | 35 | 1022.8 |
| 20260506184717 | 51 | 5 | 3.5 | 8.7 | 0.00 | 0.00 | 0.00 | 35 | 1022.8 |
| 20260506183718 | 51 | 300 | 3.5 | 7.8 | 0.00 | 0.00 | 0.00 | 36 | 1023.0 |
| 20260506182817 | 52 | 317 | 3.5 | 7.8 | 0.00 | 0.00 | 0.00 | 37 | 1023.0 |
| 20260506181819 | 50 | 246 | 3.5 | 6.1 | 0.00 | 0.00 | 0.00 | 37 | 1023.1 |
| 20260506180820 | 49 | 320 | 1.7 | 5.2 | 0.00 | 0.00 | 0.00 | 37 | 1023.1 |
| 20260506175819 | 49 | 307 | 3.5 | 9.6 | 0.00 | 0.00 | 0.00 | 37 | 1023.3 |
| 20260506173819 | 49 | 322 | 2.6 | 7.0 | 0.00 | 0.00 | 0.00 | 39 | 1023.3 |
| 20260506172820 | 48 | 275 | 5.2 | 7.8 | 0.00 | 0.00 | 0.00 | 39 | 1023.3 |
| 20260506171818 | 49 | 279 | 3.5 | 7.8 | 0.00 | 0.00 | 0.00 | 39 | 1023.3 |
| 20260506171719 | 49 | 313 | 1.7 | 6.1 | 0.00 | 0.00 | 0.00 | 39 | 1023.2 |
| 20260506165718 | 48 | 297 | 1.7 | 6.1 | 0.00 | 0.00 | 0.00 | 40 | 1023.3 |
| 20260506164718 | 48 | 319 | 1.7 | 4.3 | 0.00 | 0.00 | 0.00 | 40 | 1023.3 |
| 20260506163817 | 48 | 335 | 2.6 | 5.2 | 0.00 | 0.00 | 0.00 | 41 | 1023.3 |
| 20260506161819 | 47 | 281 | 2.6 | 4.3 | 0.00 | 0.00 | 0.00 | 42 | 1023.4 |
| 20260506160918 | 47 | 23 | 0.9 | 4.3 | 0.00 | 0.00 | 0.00 | 40 | 1023.3 |
| 20260506155919 | 48 | 273 | 0.9 | 2.6 | 0.00 | 0.00 | 0.00 | 40 | 1023.3 |
| 20260506154918 | 48 | 305 | 1.7 | 3.5 | 0.00 | 0.00 | 0.00 | 40 | 1023.3 |
| 20260506153918 | 48 | 247 | 2.6 | 7.0 | 0.00 | 0.00 | 0.00 | 40 | 1023.3 |
| 20260506152919 | 50 | 275 | 1.7 | 4.3 | 0.00 | 0.00 | 0.00 | 40 | 1023.1 |
| 20260506150819 | 49 | 320 | 1.7 | 3.5 | 0.00 | 0.00 | 0.00 | 43 | 1023.3 |
| 20260506145819 | 48 | 335 | 1.7 | 3.5 | 0.00 | 0.00 | 0.00 | 44 | 1023.3 |
| 20260506144720 | 47 | 279 | 1.7 | 6.1 | 0.00 | 0.00 | 0.00 | 46 | 1023.3 |
| 20260506143817 | 45 | 252 | 1.7 | 3.5 | 0.00 | 0.00 | 0.00 | 46 | 1023.3 |
| 20260506141917 | 44 | 337 | 1.7 | 4.3 | 0.00 | 0.00 | 0.00 | 51 | 1023.3 |
| 20260506140919 | 43 | 312 | 0.9 | 4.3 | 0.00 | 0.00 | 0.00 | 51 | 1023.3 |
| 20260506135920 | 43 | 263 | 0.9 | 2.6 | 0.00 | 0.00 | 0.00 | 53 | 1023.2 |
| 20260506134917 | 43 | 225 | 0.9 | 1.7 | 0.00 | 0.00 | 0.00 | 56 | 1023.1 |
| 20260506133918 | 41 | 10 | 2.6 | 4.3 | 0.00 | 0.00 | 0.00 | 58 | 1023.1 |
| 20260506133818 | 41 | 1 | 1.7 | 3.5 | 0.00 | 0.00 | 0.00 | 59 | 1023.1 |
| 20260506132820 | 40 | 264 | 1.7 | 2.6 | 0.00 | 0.00 | 0.00 | 65 | 1023.2 |
| 20260506131917 | 39 | 292 | 0.0 | 0.9 | 0.00 | 0.00 | 0.00 | 65 | 1023.0 |
| 20260506130018 | 38 | 319 | 0.0 | 2.6 | 0.00 | 0.00 | 0.00 | 68 | 1022.7 |
| 20260506125019 | 37 | 292 | 1.7 | 2.6 | 0.00 | 0.00 | 0.00 | 69 | 1022.7 |
| 20260506124019 | 36 | 270 | 0.0 | 0.9 | 0.00 | 0.00 | 0.00 | 71 | 1022.5 |
| 20260506123020 | 35 | 270 | 0.0 | 0.9 | 0.00 | 0.00 | 0.00 | 73 | 1022.4 |
| 20260506122917 | 35 | 270 | 0.0 | 0.9 | 0.00 | 0.00 | 0.00 | 74 | 1022.5 |
| 20260506121919 | 34 | 292 | 0.0 | 0.9 | 0.00 | 0.00 | 0.00 | 75 | 1022.2 |
| 20260506120919 | 33 | 292 | 0.9 | 1.7 | 0.00 | 0.00 | 0.00 | 78 | 1022.1 |
| 20260506115920 | 32 | 292 | 0.9 | 2.6 | 0.00 | 0.00 | 0.00 | 80 | 1022.0 |
| 20260506115018 | 31 | 292 | 0.9 | 2.6 | 0.00 | 0.00 | 0.00 | 81 | 1021.6 |
| 20260506113019 | 30 | 292 | 0.9 | 1.7 | 0.00 | 0.00 | 0.00 | 81 | 1021.3 |
| 20260506112019 | 30 | 292 | 0.0 | 0.0 | 0.00 | 0.00 | 0.00 | 81 | 1021.2 |
| 20260506111020 | 31 | 292 | 0.0 | 0.0 | 0.00 | 0.00 | 0.00 | 80 | 1021.1 |
| 20260506110019 | 31 | 292 | 0.0 | 0.0 | 0.00 | 0.00 | 0.00 | 78 | 1021.2 |